Tracking 29892 objects as of 21-Nov-2024
HD Live streaming from Space Station
objects crossing your sky now

ARIANE 42P+ DEB

Track ARIANE 42P+ DEB now!
10-day predictions


NORAD ID: 34198
Int'l Code: 1992-072AE
Perigee: 530.8 km
Apogee: 27,044.7 km
Inclination: 8.7 °
Period: 474.7 minutes
Semi major axis: 20158 km
RCS: 0.5302 m2 (medium)
Launch date: October 28, 1992
Source: France (FR)
Launch site: FRENCH GUIANA (FRGUI)

Note: This is SATELLITE DEBRIS
Your satellite tracking list
Your tracking list is empty




NASA's NSSDC Master Catalog

Two Line Element Set (TLE):
1 34198U 92072AE  24325.63375959  .00007057  00000-0  35253-1 0  9996
2 34198   8.6627 120.1351 6576275 136.5321 215.2269  3.03324178271624
Source of the keplerian elements: AFSPC